Tracking 22881 objects as of 19-Apr-2021
HD Live streaming from Space Station
objects crossing your sky now

STARLINK-1169

Track STARLINK-1169 now!
10-day predictions
STARLINK-1169 is classified as:


NORAD ID: 45061
Int'l Code: 2020-006T
Perigee: 553.3 km
Apogee: 555.4 km
Inclination: 53.1 °
Period: 95.6 minutes
Semi major axis: 6925 km
RCS: Unknown
Launch date: January 29, 2020
Source: United States (US)
Launch site: AIR FORCE EASTERN TEST RANGE (AFETR)
aabbcc
Your satellite tracking list
Your tracking list is empty




NASA's NSSDC Master Catalog

Two Line Element Set (TLE):
1 45061U 20006T   21108.83970224  .00000230  00000-0  34329-4 0  9991
2 45061  53.0585  23.6001 0001544  69.1420 290.9734 15.06407516 67295
Source of the keplerian elements: AFSPC